Location: Ch?enovice
(49.7164°N, 15.2160°E)
Time: 21:48:43
(UTC+00:00)

H-2A R/B - Pass Details

Date: 23 May 2024
Orbit: 553 x 571 km, 98.1° (Epoch: 20 June)

Event Time Altitude Azimuth Distance (km) Brightness Sun altitude
Rises 00:36:04 0° 17° (NNE) 2,759 8.7 -16.2°
Reaches altitude 10° 00:38:16 10° 22° (NNE) 1,856 7.4 -16.1°
Maximum altitude 00:42:12 56° 101° (E) 670 3.8 -15.8°
Enters shadow 00:44:25 24° 171° (S) 1,174 4.5 -15.6°
